Location: Glenbow
(51.1592°N, 114.3828°W)
Time: 20:54:05
(UTC+00:00)

Envisat - Pass Details

Date: 06 December 2021
Orbit: 764 x 766 km, 98.2° (Epoch: 26 January)

Event Time Altitude Azimuth Distance (km) Brightness Sun altitude
Rises 14:15:45 0° 6° (N) 3,248 6.1 -10.4°
Reaches altitude 10° 14:18:29 10° 352° (N) 2,317 5.2 -10.0°
Maximum altitude 14:22:22 22° 302° (WNW) 1,615 4.1 -9.5°
Drops below altitude 10° 14:26:14 10° 252° (WSW) 2,305 5.1 -8.9°
Sets 14:28:57 0° 238° (WSW) 3,226 5.9 -8.5°
